CAPE
4 1 6 4 6 5 7 7 4 7 8 3 3 2 2 3 1 0 0 0 16 0 0 0 2 1 0 0 0 0 0 0 0 0 2 0 0 0 0 0 0 0 0 0 0 0 0 0 0 0 0 0 0 0
2 3 1 2 8 6 6 8 5 7 9 1 0 0 2 7 1 0 0 11 6 5 0 0 0 0 0 0 0 0 0 0 0 0 0 0 0 0 0 0 0 0 0 0 0 0 0 0 0 0 0 0 0 0
0 1 3 5 3 7 8 8 4 6 8 0 0 0 4 4 2 5 6 0 0 0 0 0 0 0 1 0 0 0 0 0 0 0 0 0 0 0 0 0 0 0 0 0 0 0 0 0 0 0 0 0 0 0
1 1 1 3 1 3 7 6 3 2 4 0 0 0 1 3 5 4 0 0 0 0 0 0 0 0 0 0 0 0 1 0 0 0 0 0 0 0 0 0 0 1 0 0 0 0 0 0 0 0 0 0 0 0
0 1 1 2 4 6 5 3 1 0 1 0 0 0 0 1 3 0 0 0 0 0 0 0 0 0 0 0 0 0 0 0 1 0 0 0 0 0 0 0 0 0 2 1 0 0 2 0 0 0 0 0 0 0
0 1 1 1 2 3 4 3 0 0 0 0 0 0 0 0 0 2 3 1 0 0 1 0 0 0 0 0 0 0 0 0 0 0 0 0 0 0 0 0 0 0 0 0 0 0 0 0 0 0 0 0 0 0
0 0 0 1 2 3 5 2 0 0 0 0 0 0 0 0 0 0 0 0 0 0 0 0 0 0 0 0 0 0 0 0 0 0 0 0 0 0 0 0 0 0 0 0 0 0 0 0 0 0 0 0 0 0
0 0 0 1 2 3 5 1 0 0 0 0 0 0 0 0 0 0 0 0 0 0 0 0 0 0 0 0 0 0 0 0 0 0 0 0 0 0 0 0 0 0 0 0 0 0 0 0 0 0 0 0 0 0
0 0 0 1 2 4 5 0 0 0 0 0 0 0 0 0 0 0 0 0 0 0 0 0 0 0 0 0 0 0 0 0 0 0 0 0 0 0 0 0 0 0 0 0 0 0 0 0 0 0 0 0 0 0
0 0 0 1 2 4 4 0 0 0 0 0 0 0 0 0 0 0 0 0 0 0 0 0 0 0 0 0 0 0 0 0 0 0 0 0 0 0 0 0 0 0 0 0 0 0 0 0 0 0 0 0 0 0
0 0 0 0 2 4 2 0 0 0 0 0 0 0 0 0 0 0 0 0 0 0 0 0 0 0 0 0 0 0 0 0 0 0 0 0 0 0 0 0 0 0 0 0 0 0 0 0 0 0 0 0 0 0
0 0 0 0 2 4 1 0 0 0 0 0 0 0 0 0 0 0 0 0 0 0 0 0 0 0 0 0 0 0 0 0 0 0 0 0 0 0 0 0 0 0 0 0 0 0 0 0 0 0 0 0 0 0
0 0 0 0 2 6 0 0 0 0 0 0 0 0 0 0 0 0 0 0 0 0 0 0 0 0 0 0 0 0 0 0 0 0 0 0 0 0 0 0 0 0 0 0 0 0 0 0 0 0 0 0 0 0
0 0 0 2 2 4 0 0 0 0 0 0 0 0 0 0 0 0 0 0 0 0 0 0 0 0 0 0 0 0 0 0 0 0 0 0 0 0 0 0 0 0 0 0 0 0 0 0 0 0 0 0 0 0
2 2 0 6 4 0 0 0 0 0 0 0 0 0 0 0 0 0 0 0 0 0 0 0 0 0 0 0 0 0 0 0 0 0 0 0 0 0 0 0 0 0 0 0 0 0 0 0 0 0 0 0 0 0
9 10 3 3 0 0 0 0 0 0 0 0 0 0 0 0 0 0 0 0 0 0 0 0 0 0 0 0 0 0 0 0 0 0 0 0 0 0 0 0 0 0 0 0 0 0 0 0 0 0 0 0 0 0
9 3 0 0 0 0 0 0 0 0 0 0 0 0 0 0 0 0 0 0 0 0 0 0 0 0 0 0 0 0 0 0 0 0 0 0 0 0 0 0 0 0 0 0 0 0 0 0 0 0 0 0 0 0
1 0 1 0 0 0 0 0 0 0 0 0 0 0 0 0 0 0 0 0 0 0 0 0 0 0 0 0 0 0 0 0 0 0 0 0 0 0 0 0 0 0 0 0 0 0 0 0 0 0 0 0 0 0
1 3 6 1 0 0 0 0 0 0 0 0 0 0 0 0 0 0 0 0 0 0 0 0 0 0 0 0 0 0 0 0 0 0 0 0 0 0 0 0 0 0 0 0 0 0 0 0 0 0 0 0 0 0
6 7 4 4 0 0 0 0 0 0 0 0 0 0 0 0 0 0 0 0 0 0 0 0 0 0 0 0 0 0 0 0 0 0 0 0 0 0 0 0 0 0 0 0 0 0 0 0 0 0 0 0 0 0
0 1 1 0 0 0 0 0 0 0 0 0 0 0 0 0 0 0 0 0 0 0 0 0 0 0 0 0 0 0 0 0 0 0 0 0 0 0 0 0 0 0 0 0 0 0 0 0 0 0 0 0 0 0
0 0 0 1 0 0 0 0 0 0 0 0 0 0 0 0 0 0 0 0 0 0 0 0 0 0 0 0 0 0 0 0 0 0 0 0 0 0 0 0 0 0 0 0 0 0 0 0 0 0 0 0 0 0
0 0 0 0 0 0 0 0 0 0 0 0 0 0 0 0 0 0 0 0 0 0 0 0 0 0 0 0 0 0 0 0 0 0 0 0 0 0 0 0 0 0 0 0 0 0 0 0 0 0 0 0 0 0
0 0 0 0 0 0 0 0 0 0 0 0 0 0 0 0 0 0 0 0 0 0 0 0 0 0 0 0 0 0 0 0 0 0 0 0 0 0 0 0 0 0 0 0 0 0 0 0 0 0 0 0 0 0
0 0 0 0 0 0 0 0 0 0 0 0 0 0 0 0 0 0 0 0 0 0 0 0 0 0 0 0 0 0 0 0 0 0 0 0 0 0 0 0 0 0 0 0 0 0 0 0 0 0 0 0 0 0
0 0 0 0 0 0 0 0 0 0 0 0 0 0 0 0 0 0 0 0 0 0 0 0 0 0 0 0 0 0 0 0 0 0 0 0 0 0 0 0 0 0 0 0 0 0 0 0 0 0 0 0 0 0
0 0 0 0 0 0 0 0 0 0 0 0 0 0 0 0 0 0 0 0 0 0 0 0 0 0 0 0 0 0 0 0 0 0 0 0 0 0 0 0 0 0 0 0 0 0 0 0 0 0 0 0 0 0
0 0 0 0 0 0 0 0 0 0 0 0 0 0 0 0 0 0 0 0 0 0 0 0 0 0 0 0 0 0 0 0 0 0 0 0 0 0 0 0 0 0 0 0 0 0 0 0 0 0 0 0 0 0
0 0 0 0 0 0 0 0 0 0 0 0 0 0 0 0 0 0 0 0 0 0 0 0 0 0 0 0 0 0 0 0 0 0 0 0 0 0 0 0 0 0 0 0 0 0 0 0 0 0 0 0 0 0
0 0 0 0 0 0 0 0 0 0 0 0 0 0 0 0 0 0 0 0 0 0 0 0 0 0 0 0 0 0 0 0 0 0 0 0 0 0 0 0 0 0 0 0 0 0 0 0 0 0 0 0 0 0
0 0 0 0 0 0 0 0 0 0 0 0 0 0 0 0 0 0 0 0 0 0 0 0 0 0 0 0 0 0 0 0 0 0 0 0 0 0 0 0 0 0 0 0 0 0 0 0 0 0 0 0 0 0
0 0 0 0 0 0 0 0 0 0 0 0 0 0 0 0 0 0 0 0 0 0 0 0 0 0 0 0 0 0 0 0 0 0 0 0 0 0 0 0 0 0 0 0 0 0 0 0 0 0 0 0 0 0
0 0 0 0 0 0 0 0 0 0 0 0 0 0 0 0 0 0 0 0 0 0 0 0 0 0 0 0 0 0 0 0 0 0 0 1 2 1 1 0 0 0 0 0 0 0 0 0 0 0 0 0 0 0
CIN
-1 -1 -1 -1 -1 -1 -1 -1 -1 -1 -1 0 -1 -1 0 0 0 0 0 -4 -2 -1 0 0 -3 0 -1 -1 0 0 0 0 0 0 -1 0 0 0 -2 0 0 0 0 0 0 0 0 0 0 0 0 0 0 0
0 0 -1 0 -1 0 -1 -1 0 0 -1 -1 0 0 0 0 0 0 0 -3 -1 0 0 0 0 0 0 0 0 0 0 0 0 0 0 0 -1 0 0 0 0 0 0 0 0 0 0 0 0 0 0 0 0 0
0 0 -1 0 0 0 -1 -1 0 -1 0 0 0 0 0 0 0 -1 -4 0 0 0 0 0 0 0 -1 0 0 0 0 0 0 0 0 0 0 0 -8 0 0 0 0 0 0 0 0 0 0 0 0 0 0 0
0 0 0 -1 0 0 0 0 0 0 0 0 0 0 0 0 -1 -4 0 0 0 0 0 0 0 0 0 0 0 0 0 0 0 0 0 0 0 0 0 0 0 0 0 0 0 0 0 0 0 0 0 0 0 0
0 0 0 0 0 0 -1 0 -1 0 -1 0 0 0 0 0 -3 0 0 0 0 0 0 0 0 0 0 0 0 0 -1 0 0 0 0 0 0 0 0 0 0 0 0 0 0 0 0 0 0 0 0 0 0 0
0 0 0 0 0 0 0 0 0 0 0 0 0 0 0 0 0 -19 -4 0 0 0 0 0 0 0 0 0 0 0 0 0 0 0 0 0 0 0 0 0 0 0 0 0 0 0 0 0 0 0 0 0 0 0
0 0 0 0 0 0 0 0 0 0 0 0 0 0 0 0 0 0 0 0 0 0 -1 0 0 0 0 0 0 0 0 0 0 0 0 0 0 0 0 0 0 0 0 0 0 0 0 0 0 0 0 0 0 0
0 0 0 0 0 0 0 0 0 0 0 0 0 0 0 0 0 0 0 0 0 0 0 0 0 0 0 0 0 0 0 -1 0 0 0 0 0 0 0 0 0 0 0 0 0 0 0 0 0 0 0 0 0 0
0 0 0 0 0 0 0 0 0 0 0 0 0 0 0 0 0 0 0 0 0 0 0 0 0 0 0 0 0 0 -1 -1 0 0 0 0 0 0 0 0 0 0 0 0 0 0 0 0 0 0 0 0 0 0
0 0 0 0 0 0 0 0 0 0 0 0 0 0 0 0 0 0 0 0 0 0 0 0 0 0 0 0 0 0 0 0 0 0 0 0 0 0 0 0 0 0 0 0 0 0 0 0 0 0 0 0 0 0
0 0 0 0 0 0 0 0 0 0 0 0 0 0 0 0 0 0 0 0 0 0 0 0 0 0 0 0 0 0 0 0 0 0 0 0 0 0 0 0 0 0 0 0 0 0 0 0 0 0 0 0 0 0
0 0 0 0 0 0 0 0 0 0 0 0 0 0 0 0 0 0 0 0 0 0 0 0 0 0 0 0 0 0 0 0 0 0 0 0 0 0 0 0 0 0 0 0 0 0 0 0 0 0 0 0 0 0
0 0 0 0 0 0 0 0 0 0 0 0 0 0 0 0 0 0 0 0 0 0 0 0 0 0 0 0 0 0 0 0 0 0 0 0 0 0 0 0 0 0 0 0 0 0 0 0 0 0 0 0 0 0
0 0 0 0 0 0 0 0 0 0 0 0 0 0 0 0 0 0 0 0 0 0 0 0 0 0 0 0 0 0 0 0 0 0 0 0 0 0 0 0 0 0 0 0 0 0 0 0 0 0 0 0 0 0
0 0 0 -1 0 0 0 0 0 0 0 0 0 0 0 0 0 0 0 0 0 0 0 0 0 0 0 0 0 0 0 0 0 0 0 0 0 0 0 0 0 0 0 0 0 0 0 0 0 0 0 0 0 0
0 -1 0 0 0 0 0 0 0 0 0 0 0 0 0 0 0 0 0 0 0 0 0 0 0 0 0 0 0 0 0 0 0 0 0 0 0 0 0 0 0 0 0 0 0 0 0 0 0 0 0 0 0 0
0 0 0 0 0 0 0 0 0 0 0 0 0 0 0 0 0 0 0 0 0 0 0 0 0 0 0 0 0 0 0 0 0 0 0 0 0 0 0 0 0 0 0 0 0 0 0 0 0 0 0 0 0 0
0 0 0 0 0 0 0 0 0 0 0 0 0 0 0 0 0 0 0 0 0 0 0 0 0 0 0 0 0 0 0 0 0 0 0 0 0 0 0 0 0 0 0 0 0 0 0 0 0 0 0 0 0 0
0 0 0 0 0 0 0 0 0 0 0 0 0 0 0 0 0 0 0 0 0 0 0 0 0 0 0 0 0 0 0 0 0 0 0 0 0 0 0 0 0 0 0 0 0 0 0 0 0 0 0 0 0 0
0 0 0 0 0 0 0 0 0 0 0 0 0 0 0 0 0 0 0 0 0 0 0 0 0 0 0 0 0 0 0 0 0 0 0 0 0 0 0 0 0 0 0 0 0 0 0 0 0 0 0 0 0 0
0 0 0 0 0 0 0 0 0 0 0 0 0 0 0 0 0 0 0 0 0 0 0 0 0 0 0 0 0 0 0 0 0 0 0 0 0 0 0 0 0 0 0 0 0 0 0 0 0 0 0 0 0 0
0 0 0 0 0 0 0 0 0 0 0 0 0 0 0 0 0 0 0 0 0 0 0 0 0 0 0 0 0 0 0 0 0 0 0 0 0 0 0 0 0 0 0 0 0 0 0 0 0 0 0 0 0 0
0 0 0 0 0 0 0 0 0 0 0 0 0 0 0 0 0 0 0 0 0 0 0 0 0 0 0 0 0 0 0 0 0 0 0 0 0 0 0 0 0 0 0 0 0 0 0 0 0 0 0 0 0 0
0 0 0 0 0 0 0 0 0 0 0 0 0 0 0 0 0 0 0 0 0 0 0 0 0 0 0 0 0 0 0 0 0 0 0 0 0 0 0 0 0 0 0 0 0 0 0 0 0 0 0 0 0 0
0 0 0 0 0 0 0 0 0 0 0 0 0 0 0 0 0 0 0 0 0 0 0 0 0 0 0 0 0 0 0 0 0 0 0 0 0 0 0 0 0 0 0 0 0 0 0 0 0 0 0 0 0 0
0 0 0 0 0 0 0 0 0 0 0 0 0 0 0 0 0 0 0 0 0 0 0 0 0 0 0 0 0 0 0 0 0 0 0 0 0 0 0 0 0 0 0 0 0 0 0 0 0 0 0 0 0 0
0 0 0 0 0 0 0 0 0 0 0 0 0 0 0 0 0 0 0 0 0 0 0 0 0 0 0 0 0 0 0 0 0 0 0 0 0 0 0 0 0 0 0 0 0 0 0 0 0 0 0 0 0 0
0 0 0 0 0 0 0 0 0 0 0 0 0 0 0 0 0 0 0 0 0 0 0 0 0 0 0 0 0 0 0 0 0 0 0 0 0 0 0 0 0 0 0 0 0 0 0 0 0 0 0 0 0 0
0 0 0 0 0 0 0 0 0 0 0 0 0 0 0 0 0 0 0 0 0 0 0 0 0 0 0 0 0 0 0 0 0 0 0 0 0 0 0 0 0 0 0 0 0 0 0 0 0 -1 0 0 0 0
0 0 0 0 0 0 0 0 0 0 0 0 0 0 0 0 0 0 0 0 0 0 0 0 0 0 0 0 0 0 0 0 0 0 0 0 0 0 0 0 0 0 0 0 0 0 0 0 0 0 0 0 0 0
0 0 0 0 0 0 0 0 0 0 0 0 0 0 0 0 0 0 0 0 0 0 0 0 0 0 0 0 0 0 0 0 0 0 0 0 0 0 0 0 0 0 0 0 0 0 0 0 0 0 0 0 0 0
0 0 0 0 0 0 0 0 0 0 0 0 0 0 0 0 0 0 0 0 0 0 0 0 0 0 0 0 0 0 0 0 0 0 0 0 0 0 0 0 0 0 0 0 0 0 0 0 0 0 0 0 0 0
0 0 0 0 0 0 0 0 0 0 0 0 0 0 0 0 0 0 0 0 0 0 0 0 0 0 0 0 0 0 0 0 0 0 0 0 0 0 -1 0 0 0 0 0 0 0 0 0 0 0 0 0 0 0
Wind_Speed
39 40 43 45 46 48 49 50 49 46 41 38 37 33 30 27 24 23 20 17 19 21 15 14 12 11 20 23 21 10 21 18 18 21 26 26 20 24 25 17 22 27 31 37 35 41 49 28 29 37 32 30 31 33
37 40 42 44 46 47 49 51 51 49 45 40 37 34 30 27 25 23 24 21 16 16 16 12 8 9 19 26 19 22 16 22 20 21 23 26 29 25 25 28 21 24 22 26 28 30 24 25 29 30 28 33 30 26
35 37 41 44 46 48 50 51 52 53 49 41 38 34 31 28 26 23 23 23 23 21 17 20 18 12 16 22 18 23 22 25 23 24 25 25 26 25 27 25 25 23 22 25 24 27 28 28 27 25 24 25 23 17
35 37 39 43 45 47 50 50 52 52 53 44 36 33 30 28 26 24 26 26 26 23 23 21 15 13 15 25 26 6 11 27 28 25 26 26 27 23 27 28 27 27 28 29 26 25 28 26 26 23 21 18 16 14
34 36 38 40 44 47 49 49 50 51 52 44 35 30 29 28 26 26 24 27 30 27 25 22 15 16 19 25 31 27 21 29 27 23 23 26 24 26 23 19 22 26 27 27 30 28 31 29 28 24 19 16 13 8
33 34 36 38 40 44 46 47 49 49 48 43 34 29 28 29 22 23 25 22 29 23 24 27 20 18 22 22 21 26 27 24 23 23 23 21 21 26 26 24 23 28 31 31 30 34 32 27 22 20 18 16 12 9
31 33 34 35 38 42 44 45 49 53 48 42 33 26 26 28 28 29 28 24 25 22 26 27 28 25 23 22 17 16 25 24 23 23 22 23 24 21 22 27 35 33 33 32 30 28 24 23 21 14 12 12 9 8
30 32 33 34 36 41 45 47 50 53 52 39 31 24 24 25 24 26 25 27 27 26 28 31 31 28 29 26 20 16 13 22 22 22 22 23 22 21 22 31 33 33 34 30 30 29 25 19 15 12 9 7 7 7
29 31 32 33 36 40 44 47 50 52 50 36 28 22 21 26 26 23 19 25 29 31 30 33 41 37 30 27 19 16 13 12 22 22 23 21 22 22 29 32 31 31 30 31 23 19 16 13 13 12 8 7 5 5
28 31 32 33 35 39 43 45 49 51 41 34 28 25 27 26 20 21 26 28 30 30 30 35 33 35 30 28 24 22 16 12 12 20 21 20 19 25 29 29 29 29 27 24 21 20 18 16 13 11 11 9 5 3
27 30 32 33 34 38 40 43 47 46 34 32 31 27 21 23 24 25 30 32 31 32 32 33 36 38 27 28 25 20 19 13 13 16 21 21 24 29 30 28 27 26 23 20 16 14 13 11 9 6 4 1 3 4
27 30 31 32 33 36 37 40 43 36 32 27 24 21 23 28 27 29 32 30 31 31 33 36 37 32 25 22 23 22 20 16 15 21 17 19 26 29 28 26 25 23 20 17 13 10 8 6 3 2 4 5 6 7
25 28 31 31 32 34 34 37 38 34 27 24 26 25 27 27 33 33 37 31 33 31 31 36 38 29 25 23 22 22 22 18 15 15 13 20 27 27 25 24 22 20 17 14 10 8 5 4 5 5 6 5 6 6
24 26 30 30 29 32 31 34 35 30 26 27 28 29 26 28 27 26 27 27 27 28 32 34 32 28 26 26 24 25 22 21 19 16 14 25 27 26 24 21 19 17 14 11 9 6 4 3 2 2 3 2 3 3
22 28 28 27 29 26 28 31 30 26 24 24 23 25 25 23 23 23 23 26 27 28 32 32 28 26 27 27 26 25 26 24 20 17 16 26 26 25 23 20 18 15 13 10 8 6 4 3 3 3 4 4 3 4
19 30 26 24 21 25 29 27 24 22 22 20 19 23 21 22 22 22 23 26 27 30 30 29 29 29 29 29 28 26 25 23 18 16 18 25 24 23 22 20 18 16 13 11 9 8 7 7 6 6 6 6 6 7
19 26 20 18 21 23 28 24 23 21 19 19 21 19 18 22 22 21 22 24 25 29 33 30 31 29 27 27 27 24 23 21 17 15 17 22 23 23 22 20 19 17 15 13 12 11 10 9 9 8 8 9 9 10
23 23 16 16 19 25 25 23 20 20 21 19 22 20 18 20 20 21 21 22 25 27 28 28 25 28 28 30 28 22 20 18 16 15 15 19 22 22 21 21 19 17 16 15 14 13 12 12 11 11 11 11 12 13
24 20 14 13 17 20 22 22 20 23 20 20 20 20 20 20 21 20 20 22 23 24 25 26 26 27 27 23 23 22 20 18 16 14 14 15 19 20 20 20 19 18 17 16 14 14 13 13 13 14 14 14 14 15
20 17 10 10 13 18 21 21 18 20 23 20 20 20 21 20 19 19 20 21 23 25 26 25 25 24 24 22 20 19 17 15 14 14 13 13 16 19 19 19 19 19 17 17 15 14 14 14 15 15 15 16 17 18
17 12 10 15 17 17 21 19 19 20 20 22 22 21 22 19 20 20 21 20 24 26 27 23 23 20 20 19 18 16 15 13 12 10 11 14 16 17 19 19 19 19 18 17 16 16 15 15 16 17 17 18 19 20
18 11 17 17 18 19 21 17 19 18 22 24 22 22 24 24 23 22 19 22 25 24 22 21 20 19 19 19 17 14 13 13 12 10 10 14 14 15 17 19 19 19 18 18 17 17 17 17 18 18 19 20 21 21
11 15 17 17 20 20 21 15 19 19 24 24 24 25 25 24 23 19 24 23 23 21 19 19 19 18 18 17 16 14 12 12 12 12 12 12 13 14 17 19 19 20 19 19 18 18 18 19 20 20 20 21 22 23
14 16 19 20 18 21 17 19 18 20 23 25 26 28 26 24 21 25 28 26 22 18 17 17 17 18 18 17 15 13 11 11 11 12 11 12 12 14 16 18 19 19 19 18 19 19 20 21 21 21 22 23 23 25
20 20 20 24 20 22 22 21 22 24 27 26 25 26 25 23 27 29 30 27 20 16 15 15 16 16 19 17 15 12 11 11 11 12 12 11 12 14 15 16 17 18 18 19 21 21 22 23 23 23 24 25 25 26
25 22 22 20 20 21 21 25 24 25 27 26 24 24 24 26 30 31 27 22 19 15 13 13 15 16 16 14 14 12 11 10 12 12 13 11 11 12 14 15 17 18 19 20 22 23 24 24 25 26 27 27 27 28
27 25 22 20 18 18 22 24 23 25 25 28 25 24 26 31 31 26 20 19 19 16 13 12 13 14 15 13 12 12 11 10 11 12 13 11 12 12 13 13 14 16 16 20 22 24 26 27 28 28 29 29 29 30
26 23 25 21 22 22 25 25 26 27 27 23 22 28 29 27 29 22 20 18 17 15 15 15 15 14 14 13 12 12 12 12 12 14 14 12 11 11 11 11 13 17 19 21 23 24 25 26 27 29 30 31 31 28
27 23 22 24 25 26 27 28 28 26 23 21 25 27 24 23 20 20 19 16 14 15 16 16 16 15 14 14 13 12 12 11 11 11 12 12 13 12 11 11 12 18 22 23 25 25 26 27 28 28 27 27 30 31
26 21 26 26 27 29 28 26 26 22 22 20 20 21 21 20 19 18 16 15 15 16 16 15 14 13 13 13 14 14 12 10 9 10 12 11 11 11 12 14 15 18 21 24 26 28 27 27 29 30 31 32 32 32
21 22 26 28 29 27 23 21 20 20 20 21 21 21 21 20 19 18 17 17 16 16 15 14 13 11 11 11 12 14 14 12 10 9 11 11 12 13 13 16 17 20 23 25 26 26 28 30 30 31 31 31 31 30
23 24 24 26 26 21 19 21 21 21 21 21 21 21 22 23 25 22 18 15 14 14 12 11 11 12 9 10 11 12 12 13 12 13 13 12 8 8 11 17 21 21 21 24 24 26 29 30 31 31 30 31 31 30
20 20 20 20 20 20 19 20 21 21 21 21 23 24 24 25 26 22 18 14 13 12 9 9 11 11 11 11 11 11 12 13 14 14 14 13 11 9 10 11 14 13 17 16 22 27 30 31 31 31 30 30 30 29
Wind_Direction
14 10 6 2 2 3 5 8 12 16 18 18 19 23 29 36 43 47 46 52 49 40 37 54 53 40 20 20 27 26 308 305 272 258 248 251 270 250 257 245 243 241 243 245 250 251 251 271 258 253 264 268 270 265
13 10 5 1 359 0 0 3 8 12 16 18 20 25 32 38 44 48 45 49 49 41 37 46 59 66 22 10 26 21 29 299 282 273 272 264 258 262 256 251 255 251 260 255 255 262 273 276 270 272 275 269 272 274
10 9 6 1 358 357 356 358 3 7 12 17 21 27 33 38 42 48 47 44 44 40 49 45 47 60 27 5 20 357 8 333 294 290 279 266 257 268 257 256 253 264 277 267 264 266 270 272 277 278 279 276 275 271
8 7 6 2 358 357 356 358 1 4 4 15 20 27 33 36 41 49 49 48 44 41 39 38 53 48 40 1 333 27 229 308 304 299 272 272 266 282 268 265 262 271 276 270 274 279 274 275 276 280 279 280 273 269
5 5 5 3 0 356 355 358 1 3 4 13 20 26 30 34 46 52 54 50 42 39 30 30 40 55 33 343 314 317 331 297 313 298 284 275 280 279 284 286 278 291 283 276 270 285 280 277 277 277 275 275 266 247
2 3 4 3 3 359 357 359 1 3 6 11 19 26 31 34 50 46 38 47 31 41 38 33 38 40 20 17 19 327 317 317 315 304 294 296 295 286 274 275 298 294 282 279 277 280 279 283 287 279 272 266 263 255
0 1 2 4 3 360 359 360 356 354 4 10 18 27 35 37 42 39 36 31 30 45 37 32 32 25 20 23 30 29 325 309 312 305 301 299 296 289 279 273 288 290 284 281 279 279 277 281 287 292 283 270 261 263
358 359 360 1 2 358 355 353 348 344 342 9 18 30 36 40 43 38 38 32 36 42 41 33 21 20 24 19 22 30 27 327 306 304 309 305 305 302 282 294 294 293 288 285 283 277 282 287 288 285 284 268 257 254
354 355 357 358 358 356 353 349 339 341 354 11 20 34 37 31 30 30 29 39 43 39 35 29 19 18 18 20 25 30 35 27 323 302 303 307 304 296 296 297 296 298 293 288 292 290 290 282 273 275 274 269 247 240
349 350 352 354 354 354 351 350 345 337 4 13 23 25 20 23 22 35 33 30 30 32 35 25 22 16 17 20 24 23 36 35 24 326 309 298 298 309 312 309 304 301 301 290 288 281 282 272 271 271 270 271 263 236
343 346 347 348 350 351 350 350 348 355 10 15 14 19 22 23 30 31 26 24 23 23 23 20 17 11 21 19 19 32 27 33 28 2 321 294 293 311 315 316 317 314 309 306 304 302 296 289 279 271 265 220 148 135
337 341 344 344 346 346 349 351 352 4 7 10 15 24 25 23 24 20 18 20 20 17 14 12 10 13 22 27 26 28 28 34 29 3 350 315 303 312 316 318 321 324 323 319 317 315 312 319 326 72 101 110 105 102
330 336 339 340 342 343 348 350 353 359 9 16 17 16 16 17 12 11 7 12 10 10 12 7 7 17 23 28 25 28 27 27 18 27 15 332 313 313 316 317 321 328 334 339 347 352 7 39 59 74 91 90 96 93
318 328 335 335 338 340 346 348 352 1 6 5 4 2 12 9 11 12 11 10 10 9 6 7 10 18 21 23 23 19 22 25 24 23 15 330 316 311 311 314 315 321 330 338 348 1 19 36 46 30 41 50 66 57
313 319 329 330 333 339 344 347 353 1 2 0 5 360 5 11 12 13 14 12 10 10 7 9 14 19 19 19 22 19 20 22 27 20 9 334 318 307 304 307 307 306 309 316 321 326 322 318 321 325 321 335 356 4
309 317 321 324 334 336 339 346 353 357 360 1 4 359 3 3 3 5 7 8 10 9 11 14 12 12 14 14 15 15 12 11 13 8 358 335 318 307 299 298 300 298 294 293 294 293 294 295 298 301 312 323 328 332
307 315 320 322 329 335 337 340 344 348 352 354 350 354 357 357 359 2 5 7 11 9 6 9 7 9 9 12 10 14 10 6 4 2 357 338 320 306 297 293 294 293 291 285 286 289 289 291 291 294 302 306 314 320
296 312 306 312 325 328 330 334 336 338 336 340 342 345 351 354 356 358 1 6 7 6 6 5 7 4 4 2 2 5 5 4 6 4 357 337 318 307 297 290 289 290 289 287 283 283 285 286 289 292 298 304 313 318
296 299 293 302 322 327 327 329 330 328 329 338 341 346 348 348 350 356 1 3 6 8 6 5 3 360 358 -0 359 359 360 2 2 2 358 343 324 310 301 291 287 286 286 288 288 286 286 289 290 294 300 305 309 315
286 291 275 296 315 320 321 324 330 327 329 333 339 340 342 342 347 349 353 356 360 360 357 357 354 355 356 358 1 1 5 9 8 7 7 357 331 312 302 293 286 284 285 286 287 292 291 291 294 298 303 307 309 312
299 296 297 305 310 313 320 321 321 327 332 331 337 340 340 344 338 338 341 351 350 350 348 349 352 358 2 4 6 8 10 14 11 12 8 354 336 315 301 296 288 284 282 284 284 289 292 293 295 299 303 307 311 313
295 281 300 303 306 312 312 315 317 323 324 327 332 335 335 333 331 334 344 341 341 345 351 353 356 358 360 2 5 11 14 15 14 13 7 352 342 324 302 295 289 284 284 285 287 289 292 296 300 305 306 309 313 315
294 295 297 301 302 304 310 316 310 315 319 324 331 330 332 332 335 343 337 341 341 347 352 356 359 1 1 5 8 12 17 17 15 14 8 0 348 330 308 295 289 285 283 285 289 291 292 297 299 303 307 310 312 314
300 292 291 296 291 302 314 309 313 316 320 320 324 325 329 330 337 333 332 337 341 351 354 356 359 0 2 3 4 9 16 18 14 12 13 4 355 339 318 302 293 287 287 287 289 292 294 297 300 303 305 306 308 310
287 287 290 290 298 300 300 302 304 309 313 317 320 324 328 332 328 329 331 336 340 347 352 356 357 357 356 359 6 12 18 16 11 6 3 1 352 339 328 316 303 293 290 289 289 292 294 297 299 301 303 306 306 309
279 284 283 284 291 295 297 302 301 306 312 316 320 327 330 326 326 327 335 341 345 347 349 351 354 355 355 0 1 6 10 15 9 1 355 359 352 342 333 320 309 300 295 293 292 293 294 296 298 300 301 304 307 309
276 283 290 296 299 303 307 308 310 313 313 315 320 320 322 322 324 334 344 348 348 351 354 356 356 353 354 359 4 7 9 11 4 356 355 356 351 341 335 326 318 312 308 301 298 296 295 296 298 300 302 304 306 308
284 286 281 284 295 298 302 305 307 309 313 319 320 316 320 322 328 338 344 348 354 2 3 2 359 359 1 2 5 6 2 359 357 352 349 352 354 351 345 335 321 311 311 307 302 300 300 300 300 300 301 302 304 308
285 292 293 291 298 302 302 304 306 312 320 315 315 318 323 330 338 342 346 353 359 358 354 352 354 359 1 3 4 3 4 3 0 356 354 355 354 352 353 349 338 318 308 304 302 302 302 301 301 303 306 307 305 306
287 296 297 299 299 302 308 315 314 321 324 323 327 330 332 337 342 347 350 350 348 345 347 349 353 356 358 1 1 1 3 8 10 2 358 358 357 360 353 341 334 324 315 307 301 299 303 306 304 302 301 301 302 304
303 302 302 303 306 313 320 325 325 327 328 327 330 328 330 337 341 343 342 343 344 347 348 349 353 359 1 2 2 0 358 3 6 6 360 2 2 355 348 338 330 324 316 309 303 302 301 300 300 299 298 298 299 303
307 307 309 309 313 323 329 324 325 324 327 328 330 334 335 334 332 338 343 343 343 343 347 355 358 359 9 11 8 6 3 0 2 358 351 352 5 7 357 339 322 323 325 314 310 305 302 299 296 295 297 296 293 293
318 322 324 326 326 325 328 330 329 331 333 333 334 335 334 334 334 342 353 353 351 353 359 7 9 11 12 9 8 8 4 359 354 351 350 348 350 353 349 347 340 337 329 330 318 305 296 294 291 290 290 290 290 290